This is the latest recevied weather packets stored in our database for station/object VK4AB-13. If no packets are shown the sender has not sent any weather packets the latest 10 day(s).
| Time | Temp. | Humidity | Pressure | Rain* | Wind** | Luminosity | Snow |
|---|---|---|---|---|---|---|---|
| 1778310519 | 22.78° C | 48% | 1021.5 hPa | 0 mm | - | 5 W/m² | - |
| 1778310219 | 23.33° C | 47% | 1021.4 hPa | 0 mm | - | 9 W/m² | - |
| 1778309919 | 23.33° C | 46% | 1021.3 hPa | 0 mm | - | 11 W/m² | - |
| 1778309619 | 23.33° C | 46% | 1021.2 hPa | 0 mm | - | 14 W/m² | - |
| 1778309319 | 23.89° C | 45% | 1021.1 hPa | 0 mm | - | 16 W/m² | - |
| 1778309019 | 23.89° C | 45% | 1021 hPa | 0 mm | - | 44 W/m² | - |
| 1778308719 | 24.44° C | 45% | 1020.9 hPa | 0 mm | - | 58 W/m² | - |
| 1778308419 | 24.44° C | 45% | 1020.9 hPa | 0 mm | - | 70 W/m² | - |
| 1778308119 | 24.44° C | 44% | 1020.8 hPa | 0 mm | - | 90 W/m² | - |
| 1778307819 | 24.44° C | 44% | 1020.8 hPa | 0 mm | - | 107 W/m² | - |
| 1778307519 | 24.44° C | 44% | 1020.7 hPa | 0 mm | - | 127 W/m² | - |
| 1778307219 | 24.44° C | 44% | 1020.7 hPa | 0 mm | - | 148 W/m² | - |
| 1778306919 | 24.44° C | 44% | 1020.7 hPa | 0 mm | - | 165 W/m² | - |
| 1778306619 | 24.44° C | 44% | 1020.7 hPa | 0 mm | - | 186 W/m² | - |
| 1778306319 | 24.44° C | 44% | 1020.7 hPa | 0 mm | - | 206 W/m² | - |
| 1778306019 | 24.44° C | 44% | 1020.6 hPa | 0 mm | - | 225 W/m² | - |
| 1778305719 | 25° C | 44% | 1020.6 hPa | 0 mm | - | 243 W/m² | - |
| 1778305419 | 25° C | 44% | 1020.6 hPa | 0 mm | - | 262 W/m² | - |
| 1778305119 | 25° C | 43% | 1020.6 hPa | 0 mm | - | 285 W/m² | - |
| 1778304819 | 25° C | 43% | 1020.5 hPa | 0 mm | - | 301 W/m² | - |
| 1778304519 | 25° C | 43% | 1020.5 hPa | 0 mm | - | 311 W/m² | - |
| 1778304219 | 25° C | 43% | 1020.5 hPa | 0 mm | - | 327 W/m² | - |
| 1778303919 | 25.56° C | 42% | 1020.5 hPa | 0 mm | - | 343 W/m² | - |
| 1778303619 | 25° C | 41% | 1020.4 hPa | 0 mm | - | 355 W/m² | - |
| 1778303319 | 25° C | 41% | 1020.4 hPa | 0 mm | - | 371 W/m² | - |
* Rain latest hour (hover to see other rain measurements)
** Current wind speed in m/s (hover to see current wind gust speed)